• en France
  • Liste des pays
  • À 7 jours
  • Température de l'eau
  • Carte satellitaire
  • Carte météo
  • Widgets météo
  • user-avatar
    Se connecter

    Météo par heure à Békéscsaba

    Ce jour, 20 Novembre, Lundi

    Heure Température Précipitation Vent Pression Humidité
    00:00 +2°C° 0 mm 3 m/s 753 mmHg 81%
    01:00 +1°C° 0 mm 3 m/s 753 mmHg 85%
    02:00 +1°C° 0 mm 3 m/s 753 mmHg 84%
    03:00 +1°C° 0 mm 3 m/s 753 mmHg 83%
    04:00 0°C° 0 mm 4 m/s 753 mmHg 82%
    05:00 0°C° 0 mm 4 m/s 753 mmHg 80%
    06:00 +1°C° 0 mm 4 m/s 754 mmHg 78%
    07:00 +1°C° 0 mm 5 m/s 753 mmHg 77%
    08:00 +2°C° 0 mm 6 m/s 754 mmHg 72%
    09:00 +3°C° 0 mm 7 m/s 754 mmHg 67%
    10:00 +4°C° 0 mm 7 m/s 754 mmHg 62%
    11:00 +5°C° 0 mm 7 m/s 754 mmHg 58%
    12:00 +5°C° 0 mm 7 m/s 754 mmHg 54%
    13:00 +6°C° 0 mm 7 m/s 754 mmHg 50%
    14:00 +5°C° 0 mm 6 m/s 754 mmHg 53%
    15:00 +6°C° 0 mm 5 m/s 754 mmHg 56%
    16:00 +5°C° 0 mm 4 m/s 754 mmHg 59%
    17:00 +4°C° 0 mm 4 m/s 755 mmHg 62%
    18:00 +4°C° 0 mm 3 m/s 755 mmHg 66%
    19:00 +3°C° 0 mm 3 m/s 755 mmHg 70%
    20:00 +3°C° 0 mm 3 m/s 755 mmHg 72%
    21:00 +3°C° 0 mm 3 m/s 755 mmHg 74%
    22:00 +2°C° 0 mm 3 m/s 756 mmHg 76%
    23:00 +2°C° 0 mm 3 m/s 756 mmHg 76%

    Demain, 21 Novembre, Mardi

    Heure Température Précipitation Vent Pression Humidité
    00:00 +2°C° 0 mm 3 m/s 756 mmHg 77%
    01:00 +2°C° 0 mm 3 m/s 756 mmHg 77%
    02:00 +2°C° 0 mm 3 m/s 755 mmHg 77%
    03:00 +2°C° 0 mm 3 m/s 755 mmHg 77%
    04:00 +3°C° 0 mm 2 m/s 755 mmHg 77%
    05:00 +2°C° 0,2 mm 3 m/s 755 mmHg 78%
    06:00 +2°C° 0,2 mm 3 m/s 755 mmHg 78%
    07:00 +2°C° 0,2 mm 3 m/s 755 mmHg 78%
    08:00 +3°C° 0,3 mm 3 m/s 755 mmHg 76%
    09:00 +3°C° 0,3 mm 4 m/s 755 mmHg 74%
    10:00 +4°C° 0,3 mm 4 m/s 755 mmHg 71%
    11:00 +4°C° 0,1 mm 4 m/s 755 mmHg 68%
    12:00 +5°C° 0,1 mm 4 m/s 754 mmHg 66%
    13:00 +5°C° 0,1 mm 4 m/s 754 mmHg 63%
    14:00 +5°C° 0,3 mm 4 m/s 754 mmHg 67%
    15:00 +5°C° 0,3 mm 3 m/s 754 mmHg 72%
    16:00 +4°C° 0,3 mm 3 m/s 754 mmHg 76%
    17:00 +4°C° 0,3 mm 3 m/s 754 mmHg 79%
    18:00 +4°C° 0,3 mm 3 m/s 754 mmHg 82%
    19:00 +5°C° 0,3 mm 3 m/s 754 mmHg 86%
    20:00 +5°C° 0,2 mm 3 m/s 754 mmHg 86%
    21:00 +5°C° 0,2 mm 3 m/s 754 mmHg 87%
    22:00 +5°C° 0,2 mm 3 m/s 754 mmHg 88%
    23:00 +5°C° 0 mm 3 m/s 754 mmHg 87%

    Après-demain, 22 Novembre, Mercredi

    Heure Température Précipitation Vent Pression Humidité
    00:00 +5°C° 0 mm 3 m/s 754 mmHg 86%
    01:00 +5°C° 0 mm 3 m/s 755 mmHg 85%
    02:00 +5°C° 0 mm 3 m/s 755 mmHg 86%
    03:00 +5°C° 0 mm 3 m/s 755 mmHg 87%
    04:00 +6°C° 0 mm 2 m/s 755 mmHg 88%
    05:00 +6°C° 0,2 mm 2 m/s 755 mmHg 89%
    06:00 +6°C° 0,2 mm 2 m/s 755 mmHg 90%
    07:00 +6°C° 0,2 mm 2 m/s 755 mmHg 90%
    08:00 +7°C° 0,1 mm 3 m/s 755 mmHg 87%
    09:00 +8°C° 0,1 mm 3 m/s 756 mmHg 83%
    10:00 +9°C° 0,1 mm 3 m/s 756 mmHg 80%
    11:00 +9°C° 0 mm 3 m/s 756 mmHg 76%
    12:00 +10°C° 0 mm 3 m/s 756 mmHg 72%
    13:00 +11°C° 0 mm 3 m/s 756 mmHg 68%
    14:00 +10°C° 0 mm 3 m/s 756 mmHg 72%
    15:00 +10°C° 0 mm 3 m/s 756 mmHg 75%
    16:00 +9°C° 0 mm 3 m/s 756 mmHg 78%
    17:00 +9°C° 0 mm 3 m/s 756 mmHg 80%
    18:00 +8°C° 0 mm 3 m/s 756 mmHg 82%
    19:00 +8°C° 0 mm 3 m/s 756 mmHg 83%
    20:00 +7°C° 0 mm 3 m/s 756 mmHg 84%
    21:00 +7°C° 0 mm 3 m/s 756 mmHg 84%
    22:00 +7°C° 0 mm 3 m/s 756 mmHg 85%
    23:00 +7°C° 0 mm 3 m/s 756 mmHg 85%

    23 Novembre, Jeudi

    Heure Température Précipitation Vent Pression Humidité
    00:00 +7°C° 0 mm 3 m/s 756 mmHg 85%
    01:00 +7°C° 0 mm 3 m/s 756 mmHg 86%
    02:00 +5°C° 0 mm 3 m/s 756 mmHg 86%
    03:00 +5°C° 0 mm 3 m/s 756 mmHg 87%
    04:00 +5°C° 0 mm 3 m/s 756 mmHg 87%
    05:00 +5°C° 0 mm 3 m/s 756 mmHg 88%
    06:00 +5°C° 0 mm 3 m/s 757 mmHg 88%
    07:00 +4°C° 0 mm 3 m/s 757 mmHg 88%
    08:00 +7°C° 0 mm 3 m/s 757 mmHg 82%
    09:00 +8°C° 0 mm 3 m/s 758 mmHg 77%
    10:00 +10°C° 0 mm 3 m/s 758 mmHg 71%
    11:00 +10°C° 0 mm 3 m/s 758 mmHg 69%
    12:00 +11°C° 0 mm 3 m/s 758 mmHg 66%
    13:00 +12°C° 0 mm 3 m/s 758 mmHg 63%
    14:00 +13°C° 0 mm 2 m/s 758 mmHg 67%
    15:00 +12°C° 0 mm 2 m/s 758 mmHg 70%
    16:00 +11°C° 0 mm 1 m/s 758 mmHg 74%
    17:00 +10°C° 0 mm 2 m/s 759 mmHg 74%
    18:00 +9°C° 0 mm 2 m/s 759 mmHg 75%
    19:00 +9°C° 0 mm 2 m/s 759 mmHg 76%
    20:00 +9°C° 0 mm 2 m/s 760 mmHg 76%
    21:00 +9°C° 0 mm 2 m/s 760 mmHg 76%
    22:00 +9°C° 0 mm 2 m/s 760 mmHg 76%
    23:00 +9°C° 0 mm 2 m/s 760 mmHg 76%

    24 Novembre, Vendredi

    Heure Température Précipitation Vent Pression Humidité
    00:00 +9°C° 0 mm 2 m/s 760 mmHg 76%
    01:00 +9°C° 0 mm 2 m/s 760 mmHg 76%
    02:00 +9°C° 0 mm 2 m/s 760 mmHg 77%
    03:00 +8°C° 0 mm 2 m/s 760 mmHg 78%
    04:00 +8°C° 0 mm 2 m/s 760 mmHg 79%
    05:00 +8°C° 0 mm 2 m/s 760 mmHg 80%
    06:00 +7°C° 0 mm 2 m/s 760 mmHg 82%
    07:00 +8°C° 0 mm 1 m/s 761 mmHg 83%
    08:00 +9°C° 0 mm 1 m/s 761 mmHg 79%
    09:00 +9°C° 0 mm 2 m/s 761 mmHg 74%
    10:00 +10°C° 0 mm 2 m/s 761 mmHg 69%
    11:00 +12°C° 0 mm 1 m/s 761 mmHg 67%
    12:00 +13°C° 0 mm 1 m/s 761 mmHg 64%
    13:00 +14°C° 0 mm 1 m/s 761 mmHg 62%
    14:00 +13°C° 0 mm 1 m/s 761 mmHg 66%
    15:00 +12°C° 0 mm 1 m/s 761 mmHg 69%
    16:00 +11°C° 0 mm 1 m/s 760 mmHg 73%
    17:00 +11°C° 0 mm 1 m/s 761 mmHg 75%
    18:00 +10°C° 0 mm 1 m/s 761 mmHg 77%
    19:00 +10°C° 0 mm 1 m/s 761 mmHg 79%
    20:00 +9°C° 0 mm 1 m/s 761 mmHg 81%
    21:00 +9°C° 0 mm 1 m/s 762 mmHg 82%
    22:00 +9°C° 0 mm 1 m/s 762 mmHg 84%
    23:00 +7°C° 0 mm 2 m/s 762 mmHg 85%

    25 Novembre, Samedi

    Heure Température Précipitation Vent Pression Humidité
    00:00 +7°C° 0 mm 2 m/s 762 mmHg 86%
    01:00 +7°C° 0 mm 2 m/s 762 mmHg 87%
    02:00 +7°C° 0 mm 2 m/s 762 mmHg 87%
    03:00 +7°C° 0 mm 1 m/s 762 mmHg 88%
    04:00 +7°C° 0 mm 1 m/s 761 mmHg 88%
    05:00 +7°C° 0 mm 1 m/s 761 mmHg 88%
    06:00 +6°C° 0 mm 2 m/s 762 mmHg 88%
    07:00 +5°C° 0 mm 2 m/s 762 mmHg 88%
    08:00 +7°C° 0 mm 2 m/s 762 mmHg 82%
    09:00 +8°C° 0 mm 2 m/s 762 mmHg 76%
    10:00 +9°C° 0 mm 2 m/s 762 mmHg 70%
    11:00 +10°C° 0 mm 2 m/s 761 mmHg 67%
    12:00 +12°C° 0 mm 2 m/s 761 mmHg 63%
    13:00 +13°C° 0 mm 2 m/s 760 mmHg 59%
    14:00 +12°C° 0 mm 2 m/s 760 mmHg 63%
    15:00 +12°C° 0 mm 2 m/s 760 mmHg 66%
    16:00 +10°C° 0 mm 2 m/s 759 mmHg 70%
    17:00 +9°C° 0 mm 2 m/s 759 mmHg 71%
    18:00 +9°C° 0 mm 2 m/s 759 mmHg 72%
    19:00 +8°C° 0 mm 2 m/s 759 mmHg 73%
    20:00 +8°C° 0 mm 3 m/s 760 mmHg 74%
    21:00 +8°C° 0 mm 3 m/s 760 mmHg 75%
    22:00 +7°C° 0 mm 3 m/s 760 mmHg 76%
    23:00 +7°C° 0 mm 3 m/s 759 mmHg 77%
    Voir plus